Location: *
(51.0333°S, 178.4667°E)
Time: 14:20:29
(UTC+00:00)

Cosmos 1709 Rocket - Pass Details

Date: 15 November 2019
Orbit: 947 x 1002 km, 82.9° (Epoch: 10 December)

Event Time Altitude Azimuth Distance (km) Brightness Sun altitude
Rises 11:37:58 0° 192° (SSW) 3,696 8.6 -20.4°
Reaches altitude 10° 11:40:30 10° 194° (SSW) 2,751 7.5 -20.5°
Maximum altitude 11:46:44 66° 274° (W) 1,078 4.1 -20.5°
Enters shadow 11:49:26 35° 344° (NNW) 1,541 4.5 -20.5°
